Phoenix, AZ

7:40 AM MST on November 20, 2017 (GMT -0700)
Phoenix Sky Harbor International

Weather History for KPHX - June, 2013

Change the Weather History Date:

Thursday, June 6, 2013

  Actual Average Record
Temperature  
Mean Temperature 95 °F 88 °F  
Max Temperature 110 °F 102 °F 111 °F (2016)
Min Temperature 79 °F 75 °F 58 °F (1967)
Degree Days  
Heating Degree Days 0 0  
Month to date heating degree days 0 0  
Since 1 June heating degree days 0 0  
Since 1 July heating degree days 881 935  
Cooling Degree Days 30 23  
Month to date cooling degree days 173 135  
Year to date cooling degree days 1271 1021  
Since 1 June cooling degree days 173 135  
Growing Degree Days 44 (Base 50)    
Moisture  
Dew Point 30 °F    
Average Humidity 14    
Maximum Humidity 22    
Minimum Humidity 5    
Precipitation  
Precipitation 0.00 in 0.00 in 0.11 in (1948)
Month to date precipitation 0.00 0.00  
Year to date precipitation 2.61 3.21  
Snow  
Snow 0.00 in - - ()
Month to date snowfall 0.0  
Year to date snowfall 0.0  
Since 1 July snowfall 0.0  
Snow Depth 0.00 in    
Sea Level Pressure  
Sea Level Pressure 29.65 in    
Wind  
Wind Speed 7 mph (West)    
Max Wind Speed 21 mph    
Max Gust Speed 26 mph    
Visibility 10 miles    
Events      
T = Trace of Precipitation, MM = Missing Value Source: NWS Daily Summary

Daily Weather History Graph

Daily Weather History Graph

Search for Another Location

Airport or City:

Trip Planner

Search our weather history database for the weather conditions in past years. The results will help you decide how hot, cold, wet, or windy it might be!

Date:

Astronomy

Jun. 06, 2013 Rise Set
Actual Time 5:18 AM MST 7:35 PM MST
Civil Twilight 4:49 AM MST 8:04 PM MST
Nautical Twilight 4:14 AM MST 8:39 PM MST
Astronomical Twilight 3:36 AM MST 9:17 PM MST
Moon 3:57 AM MST (6/6) 6:04 PM MST (6/6)
Length of Visible Light 15h 14m
Length of Day
14h 17m
Waning Crescent, 3% of the Moon is Illuminated
Jun 6
Waning Crescent
Jun 8
New
Jun 16
First Quarter
Jun 23
Full
Jun 29
Last Quarter

Hourly Weather History & Observations

Time (MST) Temp. Dew Point Humidity Pressure Visibility Wind Dir Wind Speed Gust Speed Precip Events Conditions
12:51 AM 89.1 °F 33.1 °F 14% 29.68 in 10.0 mi Calm Calm - N/A   Clear
1:51 AM 87.1 °F 35.1 °F 16% 29.68 in 10.0 mi Calm Calm - N/A   Clear
2:51 AM 82.9 °F 39.9 °F 22% 29.68 in 10.0 mi East 4.6 mph - N/A   Clear
3:51 AM 82.9 °F 35.1 °F 18% 29.68 in 10.0 mi SE 3.5 mph - N/A   Clear
4:51 AM 80.1 °F 37.0 °F 21% 29.68 in 10.0 mi East 5.8 mph - N/A   Partly Cloudy
5:51 AM 79.0 °F 32.0 °F 18% 29.69 in 10.0 mi East 6.9 mph - N/A   Partly Cloudy
6:51 AM 81.0 °F 33.1 °F 18% 29.70 in 10.0 mi East 5.8 mph - N/A   Partly Cloudy
7:51 AM 86.0 °F 32.0 °F 14% 29.72 in 10.0 mi ENE 6.9 mph - N/A   Partly Cloudy
8:51 AM 90.0 °F 32.0 °F 13% 29.72 in 10.0 mi Calm Calm - N/A   Partly Cloudy
9:51 AM 93.0 °F 30.0 °F 11% 29.72 in 10.0 mi Calm Calm - N/A   Partly Cloudy
10:51 AM 98.1 °F 28.9 °F 9% 29.71 in 10.0 mi Variable 4.6 mph - N/A   Partly Cloudy
11:51 AM 102.9 °F 28.9 °F 7% 29.69 in 10.0 mi Variable 3.5 mph - N/A   Partly Cloudy
12:51 PM 104.0 °F 28.0 °F 7% 29.67 in 10.0 mi WNW 10.4 mph - N/A   Partly Cloudy
1:51 PM 107.1 °F 28.0 °F 6% 29.65 in 10.0 mi West 10.4 mph - N/A   Partly Cloudy
2:51 PM 106.0 °F 25.0 °F 6% 29.62 in 10.0 mi West 8.1 mph - N/A   Partly Cloudy
3:51 PM 109.0 °F 24.1 °F 5% 29.59 in 10.0 mi SW 11.5 mph - N/A   Partly Cloudy
4:51 PM 109.0 °F 25.0 °F 5% 29.57 in 10.0 mi West 15.0 mph - N/A   Partly Cloudy
5:51 PM 108.0 °F 25.0 °F 5% 29.56 in 10.0 mi WNW 15.0 mph 23.0 mph N/A   Partly Cloudy
6:51 PM 106.0 °F 26.1 °F 6% 29.57 in 10.0 mi West 11.5 mph - N/A   Partly Cloudy
7:51 PM 102.9 °F 28.9 °F 7% 29.57 in 10.0 mi WSW 9.2 mph - N/A   Partly Cloudy
8:51 PM 100.9 °F 28.9 °F 8% 29.59 in 10.0 mi WSW 9.2 mph - N/A   Partly Cloudy
9:51 PM 99.0 °F 28.9 °F 8% 29.61 in 10.0 mi West 9.2 mph - N/A   Clear
10:51 PM 98.1 °F 30.0 °F 9% 29.62 in 10.0 mi WNW 6.9 mph - N/A   Clear
11:51 PM 97.0 °F 28.9 °F 9% 29.62 in 10.0 mi WNW 6.9 mph - N/A   Clear